Weather in Razdel'naya

Ukraine / Odesa District     46°51′05″N   30°04′23″E
temp.,
°C
wind,
m/s
gust,
m/s
humid.,
%
clouds,
%
prec.,
mm/h
press.,
hPa
HPBL,
m
13 may, thu
thu1300:00+10ssw1185100 0.0 101216
03:00+10ssw2286100 0.4 1011100
06:00+10ese2486100 0.5 1011150
09:00+13sse6865100 0.5 1010652
12:00+15sse7959100 0.0 1010862
15:00+13se6970100 0.3 1010642
18:00+15sse6106944 0.0 1008708
21:00+11se511843 0.0 1008268
14 may, fri
fri1400:00+10se4988100 0.0 1008153
03:00+9se36915 0.0 1008109
06:00+10se3494100 0.0 100778
09:00+16s587519 0.0 1007716
12:00+21sw685355 0.0 10071742
15:00+20wsw5858100 0.1 1007593
18:00+19wsw366019 0.0 1008215
21:00+17ssw33636 0.1 100952
15 may, sat
sat1500:00+15sse336829 0.1 101037
03:00+13sw228610 0.6 101011
06:00+12ssw22856 0.0 101114
09:00+18ssw246625 0.0 1011529
12:00+22sw35490 0.0 10111361
15:00+24sw4637100 0.0 10102838
18:00+21sse6858100 0.0 1010500
21:00+15se348093 0.3 101167
16 may, sun
sun1600:00+13ese338958 0.0 101132
03:00+13e3391100 0.0 101136
06:00+13ene3388100 0.0 101070
09:00+18e3467100 0.0 1010391
12:00+22ese3451100 0.0 10091058
15:00+22sse2249100 0.0 1008803
18:00+18wsw3567100 0.0 1006166
21:00+17nw2263100 0.0 100540
17 may, mon
mon1700:00+15wsw117186 0.0 100511
03:00+14nw2270100 0.0 100431
06:00+14nw117696 0.0 100311
09:00+18w346654 0.1 1004417
12:00+21w455731 0.1 10041169
15:00+23wsw455019 1.1 10051594
18:00+21nw255873 0.0 1006160
21:00+17n227094 0.0 100712